Location: Saint-Maurice-d�Ard�che
(44.5216°N, 4.4002°E)
Time: 16:05:40
(UTC+00:00)

ERS-1 Rocket - Pass Details

Date: 30 March 2020
Orbit: 754 x 757 km, 98.5° (Epoch: 04 June)

Event Time Altitude Azimuth Distance (km) Brightness Sun altitude
Exits shadow 20:48:37 42° 34° (NE) 1,079 3.7 -27.1°
Drops below altitude 10° 20:52:24 10° 357° (N) 2,292 5.9 -27.6°
Sets 20:54:46 0° 352° (N) 3,221 6.9 -28.0°
